GFSMA_925_temp_159.txt.gz
Temp
24 24 23 24 25 25 25 26 27 27 27 29 28 29 27 28 27 26 25 23 25 26 24 24 24 24 23 22 22 22 22 22 22 22 22 22 21 20 20 20 20 20 20
25 25 24 25 26 26 26 26 27 28 28 28 28 28 28 26 24 24 24 24 25 25 24 24 24 24 23 23 23 23 22 22 22 22 22 22 21 21 20 20 20 20 20
24 26 25 25 25 26 26 25 27 27 26 27 27 26 26 24 25 29 28 27 25 25 25 24 24 24 24 24 24 24 23 23 22 22 22 21 21 20 20 20 19 19 19
25 25 25 25 24 25 25 27 27 28 27 28 29 27 26 23 24 26 28 27 25 25 26 24 24 24 24 24 24 24 23 22 22 21 22 21 20 20 19 19 19 19 18
24 25 26 25 25 26 26 28 27 28 26 28 27 28 28 27 24 24 25 27 26 25 26 25 26 24 24 23 23 23 23 22 22 22 21 21 20 20 19 19 19 19 19
25 24 25 26 27 26 26 26 27 27 27 27 25 27 28 28 25 25 26 25 26 26 26 26 26 25 24 24 23 23 23 23 22 22 22 21 20 20 19 19 19 19 19
26 26 25 26 26 26 26 27 27 27 27 27 26 24 26 27 28 28 25 25 25 25 25 25 25 25 25 24 23 23 23 23 23 22 22 21 20 20 19 19 19 18 18
25 26 25 25 26 26 26 26 26 26 26 27 27 25 20 25 28 28 26 26 28 25 26 26 25 25 24 24 23 23 23 23 22 22 21 21 21 20 20 19 19 19 19
25 25 25 25 25 25 25 26 26 26 26 27 27 26 20 22 24 27 27 27 27 26 26 24 26 26 24 24 24 23 23 23 22 22 21 21 20 20 20 20 20 20 20
25 25 25 24 25 25 25 25 26 26 25 26 27 27 27 27 23 23 28 27 27 28 27 25 25 26 24 24 24 23 23 23 22 22 21 21 20 20 20 19 20 20 20
25 25 25 25 24 25 25 25 25 25 25 26 26 26 27 27 26 24 25 26 26 27 26 27 26 25 25 24 24 24 24 23 23 23 22 21 21 20 20 20 20 20 20
25 25 25 25 24 24 25 25 25 25 25 26 26 26 25 25 25 25 23 24 25 26 26 25 25 24 24 23 23 24 24 23 23 23 22 22 21 21 21 21 20 20 20
25 25 25 25 24 24 24 25 25 25 25 25 25 26 25 26 26 26 26 24 24 26 26 24 24 24 23 23 24 23 23 23 23 23 23 22 22 21 21 21 21 20 20
25 25 25 25 25 25 25 25 25 25 25 25 25 25 25 26 26 26 27 25 22 24 24 23 23 22 23 22 24 23 23 23 22 22 22 22 22 21 21 21 20 20 20
25 25 25 25 25 25 26 25 25 25 25 25 25 25 25 25 25 26 27 26 25 21 20 23 22 22 24 22 23 23 22 22 22 22 22 22 21 21 21 20 19 20 20
25 26 25 25 25 25 25 25 25 25 25 25 25 25 25 25 26 26 26 26 26 25 21 25 25 24 24 23 22 22 22 22 22 21 21 21 21 21 20 20 19 19 19
25 25 27 25 25 25 26 26 25 25 25 25 25 25 25 25 25 26 26 26 26 25 23 25 25 25 24 24 23 23 21 21 21 21 21 20 20 20 20 19 19 19 19
25 25 26 26 25 25 26 25 25 25 25 25 25 25 25 25 25 25 25 25 25 25 24 23 25 24 24 24 24 22 20 19 20 20 20 19 19 19 19 19 19 19 19
25 25 24 25 25 25 25 25 25 25 25 25 25 25 25 25 25 25 25 25 25 24 24 24 23 24 24 23 23 21 20 19 19 19 18 18 18 19 18 18 18 18 18
25 25 25 25 25 25 25 25 25 25 25 25 25 25 25 25 25 25 25 24 24 24 23 23 23 23 23 22 22 21 18 18 17 16 17 16 17 17 17 17 17 17 16
25 25 25 25 25 25 25 25 25 25 25 25 25 25 25 25 24 24 24 24 24 23 23 22 22 21 21 21 21 20 19 17 15 16 15 14 15 16 16 15 15 15 15
26 26 25 25 25 25 25 25 25 25 25 25 25 25 24 24 24 24 24 23 23 23 22 21 21 20 20 20 20 19 18 16 16 15 15 14 14 15 15 14 14 14 15
26 25 25 25 25 25 25 25 25 25 25 25 25 24 24 23 23 22 23 23 22 22 21 21 20 19 19 19 19 19 19 17 16 15 15 13 14 14 14 14 13 13 13
26 26 25 25 25 25 25 25 25 25 25 25 25 24 24 23 23 22 22 21 21 20 20 20 20 19 19 19 18 18 18 17 15 15 15 14 14 14 14 14 14 13 13
25 25 25 25 25 25 25 25 25 25 25 25 25 24 24 23 23 22 21 20 20 19 19 19 19 19 18 18 18 18 17 17 15 15 15 15 14 14 14 15 15 15 15
24 24 24 25 25 25 25 25 25 25 24 24 24 23 23 22 21 20 20 20 19 19 18 18 18 18 18 18 18 18 18 18 16 16 16 16 15 15 14 15 15 15 15

GFSMA_925_temp_162.txt.gz
Temp
24 24 24 24 25 25 25 25 24 25 25 25 25 26 26 25 23 24 23 23 23 22 22 22 22 22 23 22 22 22 22 22 22 21 21 21 21 21 20 20 20 20 20
24 24 25 25 25 26 25 25 25 25 26 24 24 25 26 26 24 23 23 23 23 24 23 23 23 23 23 23 22 22 22 22 22 21 21 21 21 21 20 20 20 20 20
25 24 25 25 24 25 26 25 26 26 28 26 25 26 27 26 24 23 24 23 23 25 24 23 23 23 22 22 22 22 22 22 22 21 21 21 21 21 20 20 19 19 19
25 25 26 25 25 26 26 26 25 26 26 26 25 27 27 29 27 26 25 23 23 25 24 23 23 24 23 23 23 23 22 22 22 22 21 21 21 21 20 19 19 19 19
25 25 26 26 26 26 26 26 25 26 27 26 26 25 26 26 25 25 26 25 24 24 24 23 23 24 23 24 24 24 23 22 22 21 21 21 21 21 20 20 19 19 19
25 26 26 25 25 26 26 26 26 27 27 27 26 25 25 26 26 26 27 26 26 24 25 24 24 24 24 23 24 24 23 23 22 21 21 21 20 20 20 20 20 19 18
24 25 25 25 25 25 26 26 26 26 26 26 26 27 26 26 25 26 27 27 26 26 25 24 25 25 24 24 24 24 23 23 22 21 21 21 20 20 20 19 19 19 19
25 25 25 25 25 25 25 26 26 26 26 26 26 24 20 24 25 25 26 26 26 25 25 25 25 24 24 23 24 23 23 22 22 21 21 20 20 20 19 19 19 19 19
25 25 25 25 25 25 26 26 25 25 26 26 26 25 21 22 23 25 26 26 26 26 25 25 25 24 24 24 23 23 23 22 22 22 21 20 20 20 20 19 19 19 19
25 25 25 25 25 25 25 25 25 25 26 25 26 26 26 26 22 23 25 25 25 26 26 25 25 24 25 24 23 23 22 22 22 21 21 21 20 20 20 20 19 19 19
25 25 25 25 24 25 25 25 25 25 25 25 25 25 26 25 24 22 23 24 25 24 24 24 25 24 24 24 24 23 22 22 22 22 21 21 20 20 20 20 20 20 19
25 25 25 25 24 24 24 25 25 25 25 25 25 25 25 25 24 24 22 23 24 24 24 24 25 24 24 23 23 23 22 22 22 22 21 21 21 21 20 20 20 20 20
25 25 25 24 24 24 24 25 25 25 25 25 25 25 25 25 25 25 24 23 22 23 22 23 24 24 23 23 23 22 22 22 22 22 22 21 21 21 21 21 20 20 20
25 25 25 25 25 24 24 25 25 25 25 25 25 25 25 25 26 26 25 24 21 21 22 22 22 23 23 23 22 22 22 22 21 22 22 22 21 21 21 21 20 20 20
25 25 25 24 24 24 24 24 25 25 25 25 25 25 25 25 25 25 26 25 24 21 20 22 23 24 23 22 23 22 22 22 21 21 21 21 21 21 20 19 19 19 20
25 25 25 25 25 25 24 24 25 25 25 25 25 25 25 25 25 25 26 25 25 24 21 23 24 24 23 23 22 21 21 21 21 21 21 20 20 20 20 20 19 18 19
25 25 26 25 25 25 25 24 24 25 25 25 25 24 25 25 25 25 25 25 25 25 23 24 24 24 23 22 21 21 21 20 20 20 20 20 20 20 20 20 19 19 19
25 25 25 25 25 25 25 25 24 25 25 25 25 24 24 24 25 25 25 25 25 25 24 23 23 24 24 23 23 22 19 19 19 20 19 19 19 19 19 19 19 19 18
24 25 25 25 25 25 25 24 25 25 25 25 24 24 25 24 25 24 24 24 24 24 24 23 23 23 23 22 21 19 18 18 18 19 18 18 18 18 18 18 18 18 18
24 24 25 25 25 25 25 24 24 25 25 24 24 24 24 24 25 24 24 24 24 23 23 23 22 22 22 21 20 19 17 16 16 15 16 16 17 16 17 16 16 16 16
24 24 24 25 25 25 24 24 24 24 24 24 24 24 24 24 24 24 24 24 24 23 22 22 21 21 21 20 19 18 17 15 14 15 15 15 15 15 15 14 15 15 15
24 24 25 24 24 24 24 24 25 24 24 24 24 24 24 24 24 24 24 23 23 23 23 22 21 20 20 20 19 19 17 15 15 15 15 14 14 14 14 14 14 14 14
25 24 24 25 24 24 24 24 24 24 24 24 24 24 24 24 24 23 23 22 22 22 22 22 21 20 19 19 19 18 18 17 16 16 15 13 13 14 13 13 13 13 13
24 23 24 24 25 25 25 24 24 24 24 24 24 25 24 24 23 23 22 21 21 21 21 20 20 20 19 19 19 19 18 17 16 15 15 14 13 13 13 14 14 13 12
23 24 24 24 25 25 25 24 24 24 24 24 24 24 24 24 24 23 22 21 20 20 20 19 19 19 18 18 18 18 17 16 15 15 15 15 14 14 14 14 14 14 13
23 23 24 24 24 24 24 24 24 24 24 24 24 24 24 24 24 22 21 20 20 20 19 18 18 18 18 18 17 17 17 17 16 15 15 15 14 15 14 15 15 15 14

GFSMA_925_temp_165.txt.gz
Temp
24 24 24 24 24 24 24 25 25 25 25 26 26 26 27 27 25 24 25 24 23 22 22 20 21 22 21 21 22 22 21 22 22 22 21 21 21 21 21 20 20 20 20
24 24 24 24 25 25 25 25 25 25 26 26 26 26 27 27 26 25 24 24 23 22 22 21 22 23 22 22 22 22 22 22 22 22 22 21 21 21 20 20 20 20 20
25 25 24 24 24 25 25 25 26 24 25 25 25 25 25 25 25 25 24 25 24 23 22 22 23 22 23 22 22 22 22 22 22 22 22 21 21 21 20 19 20 20 19
24 25 25 24 25 25 25 26 26 25 25 25 26 25 25 24 24 25 25 25 24 24 23 23 22 22 22 22 22 22 22 22 22 22 21 21 20 20 20 19 19 19 19
24 25 24 24 25 25 25 26 26 26 25 26 26 25 25 25 24 24 26 25 25 25 24 23 22 22 22 22 22 21 22 22 22 22 22 21 21 20 20 19 19 19 18
25 25 25 24 25 25 25 25 25 26 25 26 25 24 24 25 25 25 25 25 26 25 24 23 23 23 23 22 22 22 22 22 22 21 21 21 20 20 20 20 19 19 19
24 25 24 24 25 25 25 25 25 26 26 26 25 24 25 25 26 25 25 26 26 25 24 24 23 23 23 22 22 22 23 23 22 22 21 21 20 20 20 19 19 19 19
25 25 25 24 25 25 25 25 25 25 25 25 25 23 20 24 25 25 26 26 26 25 24 24 23 24 24 23 23 22 23 22 22 22 21 21 20 20 20 19 19 19 19
25 25 25 25 25 25 25 25 25 24 25 25 25 24 20 21 21 25 25 25 25 25 24 24 24 23 23 23 23 23 22 22 22 21 21 20 20 20 20 20 19 19 19
24 24 24 24 25 25 25 24 25 25 25 25 25 25 24 24 22 22 24 26 25 24 24 24 24 24 24 23 22 23 22 22 22 22 21 21 20 20 20 20 19 19 19
25 25 24 24 24 24 25 24 24 25 25 25 25 25 25 24 23 22 23 24 23 23 24 24 24 24 24 23 23 23 22 22 21 21 21 21 20 20 20 20 20 19 19
25 25 24 24 24 24 24 24 24 24 25 25 25 24 25 24 24 23 21 22 22 23 23 24 24 25 24 23 23 23 22 21 21 21 21 21 21 21 20 19 20 20 20
25 25 24 24 24 24 24 24 24 24 24 25 25 24 24 25 25 25 23 22 21 22 23 24 24 23 24 24 23 23 22 21 21 21 21 21 21 21 21 21 20 20 19
25 25 25 24 24 24 24 24 24 24 24 25 24 24 24 25 25 25 25 23 20 20 22 23 23 23 23 23 22 22 22 21 21 21 21 20 20 20 20 20 19 19 20
25 25 24 24 25 24 24 24 24 24 24 24 24 24 24 24 25 25 25 25 24 20 20 23 23 24 23 22 22 21 21 21 21 21 20 20 20 20 19 19 19 19 20
25 25 25 25 25 25 24 24 24 24 24 24 24 25 24 24 24 24 24 25 25 23 20 23 23 23 23 22 22 21 21 21 20 20 20 20 20 20 19 18 18 18 19
24 24 25 25 25 25 25 24 24 24 24 24 24 24 24 24 24 24 24 24 25 24 22 23 23 23 23 22 21 20 21 20 20 20 20 19 19 19 19 19 18 18 18
24 25 25 25 25 24 24 24 24 24 24 24 24 24 24 24 24 24 24 25 25 24 24 23 23 23 23 22 21 20 19 19 19 19 19 19 19 19 19 18 18 18 18
24 25 25 25 25 25 24 24 24 25 24 24 24 24 24 24 24 24 24 24 24 24 24 23 23 23 22 21 19 19 18 18 17 17 18 18 18 18 18 17 17 17 17
23 24 24 24 24 24 24 24 24 24 24 24 24 24 24 24 24 24 24 24 24 23 23 23 22 22 21 20 19 18 17 17 16 15 16 16 16 16 16 15 16 15 16
23 23 24 24 24 24 24 24 24 24 24 24 24 24 24 24 24 25 24 24 23 23 22 22 21 21 20 19 19 18 17 16 14 15 15 15 15 15 15 14 14 14 15
23 23 23 24 24 24 24 24 24 24 24 24 24 24 24 24 24 24 24 23 24 23 22 22 21 20 20 20 19 18 17 14 14 15 15 14 14 14 14 13 13 13 14
22 22 23 23 23 24 24 24 24 23 24 24 24 24 24 23 23 23 23 23 23 21 22 22 21 21 21 20 19 18 17 16 16 16 14 13 13 14 14 13 13 13 12
21 21 21 22 22 23 24 24 24 24 24 24 24 24 24 24 24 23 23 22 21 21 21 21 21 21 21 20 19 18 18 17 16 15 14 14 13 13 13 13 12 12 13
21 22 22 23 23 23 24 24 24 23 23 24 24 24 24 24 24 23 22 22 21 21 20 20 20 20 20 19 19 18 17 16 15 14 14 14 13 13 13 13 13 13 13
21 21 21 21 21 21 22 23 24 23 23 23 24 24 24 24 24 23 23 22 21 21 20 19 19 19 18 18 18 18 18 16 15 15 15 15 14 15 14 14 14 14 14

GFSMA_925_temp_168.txt.gz
Temp
23 23 23 23 24 25 24 25 25 25 25 26 26 25 25 25 25 24 25 24 24 23 22 22 21 21 21 22 22 22 22 22 22 22 21 21 21 21 20 20 20 20 20
23 24 24 24 24 25 25 25 25 25 25 25 24 24 25 26 25 24 24 24 24 24 23 23 23 22 22 22 22 22 22 22 22 22 22 21 21 21 20 20 20 20 20
23 24 24 24 24 24 25 25 26 25 25 25 24 24 25 26 25 25 24 24 25 24 24 23 23 23 22 22 22 21 22 22 22 22 22 22 21 21 21 20 19 19 19
24 23 24 24 25 24 25 25 25 25 25 24 25 24 25 25 24 24 24 24 25 24 24 23 23 23 22 22 22 22 22 22 22 22 21 21 21 21 20 20 19 19 19
24 24 24 24 24 25 25 25 25 25 25 25 25 24 24 24 25 24 24 24 24 24 24 23 23 23 22 22 22 22 22 22 21 21 21 21 21 20 20 19 19 19 19
24 24 24 24 25 25 25 25 25 25 25 25 24 25 25 25 25 25 24 24 24 24 24 23 23 22 22 22 21 21 22 22 22 22 21 21 21 20 20 19 19 18 18
24 23 24 24 25 25 25 25 25 25 25 25 25 25 25 25 25 24 24 24 24 23 24 24 23 22 22 22 22 22 22 22 22 22 21 21 20 20 20 19 19 19 19
24 24 24 24 24 24 25 25 24 25 25 25 24 22 21 24 25 24 24 24 24 23 24 24 23 23 23 22 22 22 22 22 22 21 21 21 20 20 20 19 19 19 19
24 24 24 24 24 24 24 25 24 24 24 24 24 24 22 22 21 25 25 24 24 24 24 24 23 23 23 23 22 22 22 22 22 21 21 20 20 20 20 19 19 19 19
24 24 24 23 24 24 24 24 24 24 24 24 24 24 24 23 22 22 24 25 24 24 24 24 23 23 24 23 23 22 22 22 21 21 21 20 20 20 20 20 19 19 19
24 24 24 24 23 23 24 24 24 24 24 24 24 24 24 23 22 21 24 23 24 24 24 24 23 24 23 23 23 22 22 22 21 21 21 21 20 20 20 20 20 20 19
25 25 24 24 24 24 24 24 24 24 24 24 24 24 24 23 23 23 22 22 21 23 23 23 23 24 23 23 23 22 22 22 22 21 21 21 21 20 20 20 20 19 20
25 25 24 24 24 24 24 23 23 23 24 24 24 24 24 24 23 24 23 21 21 22 23 23 24 23 23 23 22 22 22 21 22 21 21 21 21 21 21 21 20 19 19
25 24 24 24 24 24 24 23 23 23 24 24 24 24 24 24 24 24 24 23 22 21 22 23 24 23 22 22 22 22 22 21 21 21 21 21 21 21 18 19 19 19 20
25 25 25 25 24 24 24 24 23 23 23 24 24 24 24 24 24 24 24 23 23 22 22 23 23 23 22 22 21 22 21 21 21 21 21 20 20 20 18 18 19 19 20
25 25 25 25 25 24 24 24 24 24 23 23 24 24 24 24 24 24 24 24 23 22 22 23 24 23 22 22 21 21 21 20 20 20 20 20 20 20 19 18 18 19 19
24 24 25 25 24 24 24 24 24 24 24 24 23 24 24 24 24 24 24 23 23 23 22 23 23 23 22 21 21 20 19 19 19 19 19 19 19 19 19 18 18 18 18
23 23 24 24 25 25 24 24 23 24 24 24 24 23 24 24 24 24 24 23 23 23 23 23 23 22 21 20 20 19 18 18 18 19 19 19 19 18 18 18 18 18 17
24 23 23 23 24 25 25 24 23 23 24 24 24 24 24 23 23 24 24 23 23 23 23 22 23 22 21 20 19 18 18 18 18 18 18 18 18 17 17 18 17 17 17
23 23 23 24 24 24 24 24 24 23 23 24 24 24 24 23 24 23 24 23 23 23 23 22 22 21 21 19 19 18 17 17 16 15 15 16 16 15 15 16 16 16 16
22 23 23 23 23 23 24 24 24 24 23 23 24 24 24 24 24 24 24 24 23 22 22 22 21 20 20 19 19 18 17 17 15 15 15 15 14 14 14 15 14 14 14
21 22 23 23 23 23 23 24 24 23 24 24 24 24 24 24 23 24 24 24 23 22 22 21 21 20 21 20 19 18 18 15 15 15 15 14 13 14 14 14 14 13 13
20 21 21 22 22 23 23 23 23 23 23 23 23 23 23 24 23 23 24 24 23 24 22 22 22 22 21 21 20 19 18 17 16 16 15 13 13 13 13 13 13 13 13
20 20 21 21 22 22 23 23 23 23 23 23 23 23 23 24 24 23 23 23 23 23 22 21 21 22 22 21 20 20 19 17 16 15 14 13 12 13 13 13 12 12 13
20 20 21 21 22 23 23 23 22 22 22 23 23 23 23 23 24 23 23 22 22 22 22 21 21 21 21 20 20 19 18 16 15 14 14 14 13 12 12 13 12 12 12
19 20 21 22 22 22 22 22 22 21 21 23 23 23 24 23 23 23 23 22 21 22 22 21 20 20 20 19 19 19 19 17 15 15 14 15 13 14 12 12 12 12 12

GFSMA_925_temp_171.txt.gz
Temp
22 22 23 23 24 24 24 24 24 25 26 25 25 24 24 23 23 23 22 23 23 22 23 23 22 21 22 22 21 21 21 22 22 21 21 21 21 21 21 21 20 20 20
23 23 23 23 24 25 24 24 24 25 25 25 25 25 24 23 23 24 23 22 23 23 23 23 23 22 22 22 22 22 22 22 22 22 21 21 21 21 21 21 20 20 20
23 23 23 24 24 24 24 24 25 25 25 25 25 25 23 23 23 23 23 23 23 24 24 23 23 22 22 22 22 22 22 22 22 21 21 21 21 21 21 20 20 20 20
23 23 23 24 24 24 25 24 25 25 25 25 24 24 23 23 23 24 23 23 23 24 23 23 23 23 22 23 22 22 22 22 22 22 21 21 21 21 21 20 20 19 19
23 23 24 24 24 25 24 24 24 25 25 25 25 24 23 23 23 23 23 24 23 23 23 23 23 23 23 22 22 22 22 22 22 21 21 21 21 21 20 20 20 19 19
24 24 24 24 25 24 24 24 24 24 24 24 26 25 24 23 23 24 24 24 23 23 23 22 22 23 23 22 21 22 22 22 22 21 21 21 21 20 20 20 20 19 19
24 24 24 24 24 24 24 25 24 24 25 24 25 26 25 24 24 24 24 24 23 23 22 22 23 22 22 22 22 22 22 22 22 21 21 20 20 20 20 20 19 19 19
24 24 24 23 23 23 24 24 24 25 24 23 25 25 28 27 26 25 24 24 24 23 23 22 22 23 22 22 22 22 22 22 21 21 21 20 20 20 20 19 19 19 19
24 24 24 24 24 23 23 23 23 24 25 24 23 25 28 28 27 24 24 24 23 23 23 23 22 23 22 22 22 22 22 22 21 21 21 20 20 20 20 20 19 19 19
24 24 24 24 24 23 23 23 23 23 24 25 23 23 23 24 28 28 25 24 23 24 23 23 23 22 21 22 22 22 22 22 22 21 21 20 20 20 20 20 20 19 19
24 24 24 24 24 23 23 24 23 24 24 24 24 25 24 24 23 26 27 27 24 24 23 23 23 22 22 22 22 22 22 22 22 21 21 21 20 20 20 20 20 20 20
24 24 24 24 24 24 24 23 24 23 23 23 24 24 24 26 26 26 27 26 26 25 23 22 22 22 22 22 22 22 22 22 22 22 21 21 21 21 20 20 20 20 20
23 23 24 24 23 24 24 24 23 23 23 24 24 24 24 24 24 24 25 27 26 25 24 23 23 22 22 22 22 22 22 21 21 21 21 21 21 21 21 21 20 20 20
24 24 24 24 24 24 24 24 23 23 23 23 23 23 24 24 23 23 25 25 26 26 25 24 22 22 21 21 21 21 21 21 21 21 21 21 21 20 19 19 19 20 20
23 24 24 24 24 24 24 24 23 23 23 23 23 22 24 24 23 23 23 24 24 26 26 26 23 22 21 21 21 19 19 21 21 20 20 21 20 20 19 18 18 19 20
24 24 23 23 23 24 24 24 23 23 23 23 23 24 23 24 24 24 23 23 24 24 24 25 25 22 21 21 20 19 19 20 20 20 20 20 20 20 19 18 18 19 19
24 24 24 22 23 24 24 23 23 22 22 23 24 24 24 24 24 24 24 24 24 23 24 24 23 21 20 20 19 19 19 19 20 20 20 20 20 20 19 19 17 17 18
22 24 24 24 22 23 23 24 24 23 23 23 23 23 23 24 23 23 24 24 24 23 24 24 24 23 21 20 19 19 18 19 18 19 19 19 19 19 19 18 18 18 17
22 22 23 24 24 23 22 22 23 24 23 23 23 23 24 23 23 23 23 23 24 23 23 23 24 23 20 20 19 18 18 17 17 17 17 18 18 18 18 17 17 17 17
21 22 22 22 23 23 22 22 22 22 23 22 22 22 23 24 23 23 23 23 23 23 23 23 23 23 22 19 19 18 17 17 16 15 14 16 16 16 17 16 16 16 16
21 21 22 22 22 22 23 23 22 22 22 22 22 22 23 23 24 23 23 23 23 23 23 23 23 24 23 19 19 18 18 17 15 15 14 15 14 14 15 15 14 15 15
20 21 21 22 22 22 23 24 23 22 22 22 22 23 23 23 24 24 23 24 23 23 23 23 23 24 23 21 19 19 18 16 15 16 14 13 13 14 15 14 14 13 14
20 20 21 21 21 21 22 23 23 22 22 22 22 22 23 24 23 22 23 23 23 23 23 22 23 23 23 22 22 19 18 17 19 15 15 14 13 13 14 13 12 13 13
19 20 21 21 21 21 22 23 23 23 22 22 22 22 22 23 23 22 22 22 22 22 23 22 21 22 22 22 21 20 19 18 17 16 15 14 12 12 13 12 12 12 13
19 19 20 20 21 21 23 23 22 21 22 22 22 22 22 22 23 24 23 22 22 22 22 23 22 22 21 21 21 20 18 17 15 14 14 14 12 12 11 10 11 12 13
19 19 19 19 20 20 22 23 22 21 21 22 22 21 22 23 23 23 23 23 22 22 22 21 23 22 21 20 20 20 19 18 18 15 14 14 12 12 12 11 11 11 12